Vernal, UT

8:52 PM MST on November 20, 2017 (GMT -0700)
Vernal

Weather History for KVEL - February, 2014

Change the Weather History Date:

Thursday, February 27, 2014

  Actual Average Record
Temperature  
Mean Temperature 38 °F 31 °F  
Max Temperature 46 °F 42 °F 61 °F (1986)
Min Temperature 30 °F 21 °F -9 °F (1960)
Degree Days  
Heating Degree Days 27 34  
Month to date heating degree days 937 1063  
Since 1 July heating degree days 5781 5458  
Cooling Degree Days 0 0  
Month to date cooling degree days 0 0  
Year to date cooling degree days 0 0  
Moisture  
Dew Point 32 °F    
Average Humidity 77    
Maximum Humidity 100    
Minimum Humidity 53    
Precipitation  
Precipitation T in 0.02 in 0.38 in (1983)
Month to date precipitation 0.09 0.50  
Year to date precipitation 0.32 1.00  
Sea Level Pressure  
Sea Level Pressure 29.73 in    
Wind  
Wind Speed 3 mph (SW)    
Max Wind Speed 12 mph    
Max Gust Speed 14 mph    
Visibility 10 miles    
Events Rain    
T = Trace of Precipitation, MM = Missing Value Source: NWS Daily Summary

Daily Weather History Graph

Daily Weather History Graph

Search for Another Location

Airport or City:

Trip Planner

Search our weather history database for the weather conditions in past years. The results will help you decide how hot, cold, wet, or windy it might be!

Date:

Astronomy

Feb. 27, 2014 Rise Set
Actual Time 6:54 AM MST 6:07 PM MST
Civil Twilight 6:27 AM MST 6:34 PM MST
Nautical Twilight 5:55 AM MST 7:06 PM MST
Astronomical Twilight 5:24 AM MST 7:38 PM MST
Moon 5:29 AM MST (2/27) 4:36 PM MST (2/27)
Length of Visible Light 12h 07m
Length of Day
11h 12m
Waning Crescent, 4% of the Moon is Illuminated
Feb 27
Waning Crescent
Mar 1
New
Mar 8
First Quarter
Mar 16
Full
Mar 23
Last Quarter

Hourly Weather History & Observations

Time (MST) Temp. Windchill Dew Point Humidity Pressure Visibility Wind Dir Wind Speed Gust Speed Precip Events Conditions
12:53 AM 33.1 °F 27.7 °F 26.1 °F 75% 29.90 in 10.0 mi West 5.8 mph - N/A   Mostly Cloudy
1:53 AM 32.0 °F 28.7 °F 26.1 °F 79% 29.88 in 10.0 mi WNW 3.5 mph - N/A   Mostly Cloudy
2:53 AM 33.1 °F 30.0 °F 27.0 °F 78% 29.86 in 10.0 mi SW 3.5 mph - N/A   Overcast
3:53 AM 32.0 °F - 27.0 °F 82% 29.83 in 10.0 mi Calm Calm - N/A   Clear
4:53 AM 32.0 °F - 27.0 °F 82% 29.82 in 10.0 mi Calm Calm - N/A   Scattered Clouds
5:53 AM 32.0 °F 28.7 °F 27.0 °F 82% 29.82 in 10.0 mi NNW 3.5 mph - N/A   Mostly Cloudy
6:53 AM 32.0 °F - 27.0 °F 82% 29.83 in 10.0 mi Calm Calm - N/A   Partly Cloudy
7:53 AM 32.0 °F 28.7 °F 28.0 °F 85% 29.83 in 10.0 mi West 3.5 mph - N/A   Clear
8:53 AM 36.0 °F - 30.0 °F 79% 29.82 in 10.0 mi Calm Calm - N/A   Mostly Cloudy
9:53 AM 39.0 °F 36.8 °F 28.9 °F 67% 29.79 in 10.0 mi SE 3.5 mph - N/A   Mostly Cloudy
10:53 AM 42.1 °F 38.4 °F 28.0 °F 58% 29.74 in 10.0 mi ESE 5.8 mph - N/A   Partly Cloudy
11:53 AM 44.1 °F - 28.0 °F 53% 29.72 in 10.0 mi Calm Calm - N/A   Overcast
12:53 PM 45.0 °F - 28.0 °F 52% 29.67 in 10.0 mi Calm Calm - N/A   Overcast
1:53 PM 44.1 °F 40.1 °F 32.0 °F 63% 29.66 in 10.0 mi SW 6.9 mph - 0.00 in Rain Light Rain
2:53 PM 41.0 °F 35.8 °F 36.0 °F 82% 29.65 in 10.0 mi NNW 8.1 mph - 0.00 in   Overcast
3:53 PM 42.1 °F 38.4 °F 36.0 °F 79% 29.62 in 10.0 mi North 5.8 mph - 0.00 in   Mostly Cloudy
4:53 PM 43.0 °F 38.8 °F 37.0 °F 80% 29.61 in 10.0 mi SSE 6.9 mph - 0.00 in   Overcast
5:53 PM 41.0 °F - 36.0 °F 82% 29.61 in 10.0 mi Calm Calm - 0.00 in   Scattered Clouds
6:53 PM 39.0 °F - 35.1 °F 86% 29.63 in 10.0 mi Calm Calm - N/A   Mostly Cloudy
7:53 PM 39.0 °F 34.8 °F 35.1 °F 86% 29.66 in 10.0 mi SSW 5.8 mph - N/A   Overcast
8:11 PM 39.9 °F 35.8 °F 35.1 °F 83% 29.66 in 10.0 mi South 5.8 mph - N/A   Overcast
8:20 PM 39.9 °F 35.8 °F 35.1 °F 83% 29.66 in 10.0 mi South 5.8 mph - N/A   Overcast
8:53 PM 41.0 °F 38.0 °F 35.1 °F 79% 29.66 in 10.0 mi SSW 4.6 mph - 0.00 in Rain Light Rain
9:53 PM 39.0 °F 36.8 °F 36.0 °F 89% 29.69 in 10.0 mi East 3.5 mph - 0.00 in   Overcast
10:53 PM 37.9 °F - 37.0 °F 97% 29.70 in 10.0 mi Calm Calm - 0.00 in   Overcast
11:53 PM 37.0 °F - 36.0 °F 96% 29.71 in 10.0 mi Calm Calm - N/A   Overcast